Denton, TX

9:08 PM CST on December 11, 2017 (GMT -0600)
Denton Municipal

Weather History for KDTO - January, 2014

Change the Weather History Date:

Saturday, January 4, 2014

  Actual Average Record
Temperature  
Mean Temperature 54 °F -  
Max Temperature 68 °F 53 °F 73 °F (1997)
Min Temperature 39 °F 32 °F 12 °F (1999)
Degree Days  
Heating Degree Days 12    
Growing Degree Days 4 (Base 50)    
Moisture  
Dew Point 38 °F    
Average Humidity 67    
Maximum Humidity 93    
Minimum Humidity 43    
Precipitation  
Precipitation 0.00 in - - ()
Sea Level Pressure  
Sea Level Pressure 29.84 in    
Wind  
Wind Speed 15 mph (South)    
Max Wind Speed 26 mph    
Max Gust Speed 36 mph    
Visibility 10 miles    
Events      
Averages and records for this station are not official NWS values.
T = Trace of Precipitation, MM = Missing Value Source: NWS Daily Summary

Daily Weather History Graph

Daily Weather History Graph

Search for Another Location

Airport or City:

Trip Planner

Search our weather history database for the weather conditions in past years. The results will help you decide how hot, cold, wet, or windy it might be!

Date:

Astronomy

Jan. 04, 2014 Rise Set
Actual Time 7:32 AM CST 5:35 PM CST
Civil Twilight 7:05 AM CST 6:02 PM CST
Nautical Twilight 6:34 AM CST 6:33 PM CST
Astronomical Twilight 6:04 AM CST 7:03 PM CST
Moon 9:51 AM CST (1/4) 9:42 PM CST (1/4)
Length of Visible Light 10h 56m
Length of Day
10h 02m
Waxing Crescent, 15% of the Moon is Illuminated
Jan 4
Waxing Crescent
Jan 7
First Quarter
Jan 15
Full
Jan 23
Last Quarter
Jan 30
New

Hourly Weather History & Observations

Time (CST) Temp. Windchill Dew Point Humidity Pressure Visibility Wind Dir Wind Speed Gust Speed Precip Events Conditions
12:53 AM 41.0 °F 32.5 °F 23.0 °F 49% 29.99 in 10.0 mi South 17.3 mph 21.9 mph N/A   Clear
1:53 AM 39.9 °F 31.1 °F 26.1 °F 58% 29.98 in 10.0 mi South 17.3 mph - N/A   Clear
2:53 AM 41.0 °F 32.8 °F 30.9 °F 67% 29.96 in 10.0 mi South 16.1 mph - N/A   Clear
3:53 AM 39.9 °F 32.5 °F 34.0 °F 79% 29.95 in 10.0 mi SSE 12.7 mph - N/A   Clear
4:53 AM 39.9 °F 31.1 °F 35.1 °F 83% 29.93 in 10.0 mi South 17.3 mph - N/A   Clear
5:53 AM 39.9 °F 31.1 °F 36.0 °F 86% 29.92 in 10.0 mi South 17.3 mph - N/A   Scattered Clouds
6:15 AM 39.2 °F 30.8 °F 35.6 °F 87% 29.92 in 10.0 mi South 15.0 mph - N/A   Mostly Cloudy
6:53 AM 39.9 °F 31.4 °F 37.0 °F 89% 29.91 in 10.0 mi South 16.1 mph - N/A   Mostly Cloudy
7:30 AM 39.2 °F 31.6 °F 37.4 °F 93% 29.89 in 10.0 mi South 12.7 mph - N/A   Mostly Cloudy
7:53 AM 39.9 °F 32.9 °F 37.0 °F 89% 29.90 in 10.0 mi SSE 11.5 mph - N/A   Mostly Cloudy
8:53 AM 43.0 °F 36.8 °F 39.0 °F 86% 29.90 in 10.0 mi South 11.5 mph - N/A   Overcast
9:19 AM 44.6 °F 38.4 °F 39.2 °F 81% 29.91 in 10.0 mi South 12.7 mph - N/A   Overcast
9:53 AM 48.9 °F - 42.1 °F 77% 29.90 in 10.0 mi South 21.9 mph - N/A   Overcast
10:53 AM 53.1 °F - 43.0 °F 69% 29.89 in 10.0 mi SSW 26.5 mph 35.7 mph N/A   Partly Cloudy
11:53 AM 55.9 °F - 44.1 °F 64% 29.84 in 10.0 mi SSW 23.0 mph 31.1 mph N/A   Clear
12:53 PM 62.1 °F - 45.0 °F 53% 29.77 in 10.0 mi South 21.9 mph 27.6 mph N/A   Clear
1:53 PM 64.9 °F - 45.0 °F 48% 29.73 in 10.0 mi South 20.7 mph 29.9 mph N/A   Clear
2:53 PM 68.0 °F - 45.0 °F 43% 29.73 in 10.0 mi South 21.9 mph 28.8 mph N/A   Clear
3:53 PM 68.0 °F - 45.0 °F 43% 29.72 in 10.0 mi South 13.8 mph - N/A   Clear
4:53 PM 66.0 °F - 45.0 °F 47% 29.73 in 10.0 mi South 11.5 mph - N/A   Clear
5:53 PM 59.0 °F - 45.0 °F 60% 29.73 in 10.0 mi South 8.1 mph - N/A   Clear
6:53 PM 57.0 °F - 45.0 °F 64% 29.73 in 10.0 mi SSE 8.1 mph - N/A   Clear
7:53 PM 57.9 °F - 46.0 °F 65% 29.75 in 10.0 mi West 3.5 mph - N/A   Clear
8:53 PM 51.1 °F - 32.0 °F 48% 29.77 in 10.0 mi North 6.9 mph - N/A   Clear
9:53 PM 48.0 °F - 32.0 °F 54% 29.76 in 10.0 mi North 3.5 mph - N/A   Clear
10:53 PM 46.0 °F 42.5 °F 32.0 °F 58% 29.77 in 10.0 mi NW 6.9 mph - N/A   Clear
11:53 PM 42.1 °F 34.5 °F 30.0 °F 62% 29.80 in 10.0 mi NNW 15.0 mph 20.7 mph N/A   Clear